Temp
15 15 15 16 15 16 16 15 15 16 15 15 15 15 15 15 15 14 14 13 14 14 15 15 15 15 15 15 15 14 14 14 14
15 15 15 15 15 15 15 16 15 15 15 15 15 15 15 15 15 15 14 13 13 14 14 15 15 15 15 15 15 15 15 14 14
16 16 15 15 15 15 15 15 15 15 15 15 15 15 15 15 15 14 14 13 13 14 14 15 15 15 15 15 15 15 14 14 14
15 15 15 15 15 15 15 15 15 15 15 15 15 15 15 15 15 14 14 13 13 13 14 14 15 15 15 15 14 14 14 14 14
14 13 13 13 13 14 14 15 15 15 15 15 14 14 14 14 15 14 14 13 13 13 14 14 14 14 15 15 14 14 14 14 14
13 13 13 12 12 13 14 14 14 14 14 15 14 14 14 14 15 15 14 13 13 13 14 14 15 15 14 14 14 14 14 14 14
13 13 13 13 13 13 13 13 13 14 13 14 14 14 14 14 14 15 15 14 13 13 13 14 14 15 14 14 14 14 14 14 14
12 12 13 13 13 12 12 13 13 13 13 14 14 14 14 15 14 15 15 14 13 13 14 14 14 14 14 14 14 14 14 14 14
12 12 12 12 12 12 12 12 12 12 12 13 13 13 13 14 15 15 14 14 14 13 13 14 14 14 13 14 14 14 14 14 14
11 11 11 11 11 11 12 12 11 11 11 12 13 13 13 13 14 15 14 14 14 13 13 13 14 14 14 14 13 14 14 14 14
10 10 10 10 10 10 10 10 11 11 11 11 11 12 13 13 13 14 14 14 14 13 14 14 14 14 14 14 14 13 13 13 13
8 8 8 8 8 9 9 9 9 9 10 10 10 11 11 12 12 13 13 13 14 14 14 14 14 14 14 14 15 14 14 13 13
8 8 7 7 7 7 7 7 8 8 9 9 10 11 11 11 12 12 12 13 13 13 13 13 13 14 14 14 14 14 13 14 13
7 7 7 7 7 7 7 7 7 7 8 9 9 9 11 12 12 12 12 12 12 13 13 13 13 13 14 14 14 13 13 13 13
8 7 7 7 8 7 7 7 7 7 7 8 8 9 10 11 11 12 13 12 12 12 13 13 13 13 13 13 13 13 12 13 13
8 8 8 8 8 8 7 7 7 7 8 8 9 9 9 11 12 12 12 12 12 12 12 12 12 12 12 12 12 11 11 12 12
8 8 8 8 8 8 7 7 7 7 8 8 8 8 9 9 12 12 12 13 12 12 12 11 11 11 10 11 11 11 10 10 11
8 7 7 7 7 7 7 7 7 7 8 8 8 9 10 9 10 11 12 12 11 12 12 11 10 11 11 10 11 9 9 9 9
8 7 6 6 7 7 7 7 7 8 9 9 9 9 9 9 9 9 9 10 11 11 12 14 13 10 10 10 9 10 8 9 9
8 7 7 7 6 7 6 7 8 8 9 9 9 9 9 10 10 8 9 9 9 9 8 9 9 8 8 8 9 9 9 9 10
Height
1536 1535 1535 1535 1534 1534 1534 1533 1533 1533 1533 1534 1534 1535 1536 1536 1537 1537 1536 1535 1536 1537 1537 1537 1537 1537 1537 1537 1538 1538 1539 1539 1540
1533 1532 1531 1531 1531 1531 1531 1531 1530 1530 1530 1531 1531 1532 1533 1534 1534 1534 1534 1535 1535 1535 1535 1535 1535 1536 1536 1537 1537 1538 1538 1539 1539
1528 1528 1529 1528 1527 1527 1527 1527 1527 1527 1528 1528 1528 1529 1530 1530 1531 1532 1532 1532 1533 1533 1533 1533 1533 1534 1535 1535 1536 1536 1537 1537 1538
1524 1524 1523 1523 1523 1523 1523 1523 1523 1524 1524 1524 1525 1525 1526 1526 1527 1528 1528 1529 1530 1530 1531 1531 1532 1532 1533 1533 1534 1535 1536 1536 1537
1520 1518 1518 1518 1519 1519 1518 1518 1519 1519 1519 1520 1520 1521 1521 1521 1523 1524 1524 1525 1527 1527 1528 1529 1530 1530 1531 1532 1532 1533 1534 1535 1535
1514 1514 1514 1514 1514 1515 1514 1514 1514 1513 1514 1514 1515 1516 1516 1516 1517 1519 1520 1521 1523 1524 1525 1526 1527 1528 1529 1530 1530 1531 1532 1533 1534
1510 1509 1509 1509 1509 1508 1509 1508 1509 1508 1508 1508 1509 1509 1509 1510 1511 1513 1515 1517 1518 1520 1521 1522 1524 1525 1526 1528 1529 1530 1531 1531 1532
1504 1503 1503 1502 1502 1502 1501 1502 1502 1503 1503 1502 1503 1503 1503 1504 1504 1506 1509 1511 1514 1515 1517 1519 1520 1522 1523 1524 1526 1527 1528 1529 1530
1501 1500 1498 1498 1497 1496 1496 1496 1495 1495 1495 1495 1495 1497 1497 1498 1498 1500 1503 1505 1508 1510 1512 1515 1517 1518 1520 1521 1523 1524 1525 1526 1527
1498 1496 1494 1493 1492 1491 1490 1489 1488 1487 1488 1488 1487 1489 1490 1491 1492 1494 1496 1499 1502 1505 1507 1510 1512 1514 1515 1517 1518 1520 1522 1523 1524
1494 1492 1490 1488 1486 1485 1483 1483 1482 1481 1481 1481 1482 1482 1483 1484 1486 1488 1489 1492 1496 1499 1502 1505 1507 1508 1510 1512 1514 1515 1517 1519 1520
1491 1489 1487 1485 1482 1480 1478 1477 1477 1476 1476 1475 1476 1475 1476 1477 1478 1482 1485 1487 1490 1493 1496 1498 1501 1502 1504 1506 1508 1510 1512 1514 1516
1489 1487 1485 1482 1480 1477 1475 1473 1471 1471 1471 1470 1470 1469 1471 1471 1473 1474 1477 1480 1483 1487 1490 1492 1494 1495 1498 1500 1502 1505 1507 1509 1511
1487 1484 1482 1480 1477 1475 1472 1470 1469 1466 1465 1465 1465 1465 1464 1465 1466 1468 1471 1473 1476 1480 1484 1486 1488 1489 1491 1493 1496 1499 1502 1504 1506
1485 1483 1481 1478 1474 1472 1469 1467 1465 1463 1461 1461 1460 1460 1460 1460 1461 1463 1465 1466 1469 1472 1477 1480 1481 1483 1484 1487 1490 1494 1497 1499 1501
1484 1482 1479 1476 1472 1469 1467 1465 1461 1458 1458 1456 1456 1456 1455 1453 1454 1458 1461 1462 1464 1467 1469 1471 1468 1475 1480 1479 1482 1487 1491 1494 1495
1484 1481 1477 1474 1470 1468 1465 1462 1459 1456 1455 1454 1455 1452 1453 1453 1453 1455 1458 1459 1460 1462 1463 1469 1467 1465 1476 1468 1473 1481 1485 1486 1487
1482 1480 1476 1473 1470 1466 1464 1461 1458 1454 1452 1453 1454 1452 1450 1453 1454 1453 1455 1458 1457 1458 1457 1460 1470 1472 1475 1473 1471 1477 1478 1484 1480
1480 1478 1475 1472 1469 1466 1463 1461 1457 1454 1451 1450 1450 1451 1451 1453 1454 1453 1453 1457 1455 1460 1458 1457 1460 1465 1467 1468 1471 1468 1478 1479 1481
1478 1476 1474 1472 1469 1466 1463 1460 1457 1454 1451 1449 1449 1450 1449 1450 1452 1451 1455 1457 1458 1459 1457 1453 1456 1464 1465 1463 1460 1463 1470 1473 1473
Wind_Speed
14 15 15 15 15 15 16 15 15 14 15 14 14 13 11 10 11 11 10 10 12 9 9 11 11 11 9 8 8 7 6 5 5
17 17 17 18 18 18 17 18 17 17 17 16 16 16 14 14 13 14 13 13 17 12 10 10 10 10 9 8 7 6 5 4 4
19 19 20 20 20 21 21 20 20 20 20 19 19 18 17 17 16 16 16 14 16 16 13 13 12 11 10 9 8 8 7 6 5
19 19 19 20 22 22 23 23 22 23 23 23 22 21 19 19 19 18 18 17 18 17 15 14 14 13 12 11 10 10 9 8 7
13 12 15 17 20 22 24 25 25 25 26 25 25 24 23 23 21 21 21 19 19 19 18 16 16 14 13 12 12 11 10 10 9
17 16 17 15 19 24 23 25 27 27 27 28 28 27 28 27 24 24 24 22 21 22 20 18 18 16 15 14 14 13 12 11 10
19 19 21 22 21 23 26 26 26 27 29 31 31 31 32 31 29 26 26 26 25 26 24 22 19 19 17 16 15 14 13 12 12
20 21 22 23 24 23 20 22 30 29 31 33 34 34 34 34 34 29 26 29 29 27 26 24 23 21 19 17 16 16 15 13 12
17 19 22 23 23 25 21 22 23 26 29 31 36 36 36 37 36 33 29 28 29 28 26 24 24 24 23 20 18 16 16 15 13
17 17 19 22 25 27 28 26 24 25 26 28 32 34 36 38 37 34 30 27 29 27 29 26 25 27 26 25 24 20 18 15 14
20 19 19 20 22 25 28 31 30 28 26 26 29 32 34 36 37 37 32 23 29 28 30 29 28 28 29 28 26 25 24 22 19
22 22 22 20 18 20 23 27 29 30 26 25 27 29 31 35 38 36 35 31 29 27 29 29 29 28 31 30 29 28 26 24 22
18 17 19 20 20 19 19 23 25 27 26 23 25 29 30 29 33 36 36 35 32 30 31 32 30 28 30 32 31 30 27 25 23
17 19 21 22 23 21 18 19 20 23 27 22 21 25 26 28 28 31 33 37 36 29 29 31 32 31 29 33 32 30 29 26 25
18 19 21 23 24 21 19 20 22 22 22 24 22 25 27 26 23 27 28 30 32 34 35 30 33 34 31 32 34 31 28 26 25
18 18 20 22 20 19 18 19 20 21 19 20 22 24 22 19 15 20 18 24 28 28 31 25 40 34 34 30 34 33 28 27 28
16 19 21 19 18 17 19 18 21 21 20 16 16 17 7 4 9 12 14 17 16 25 17 17 9 13 2 8 27 36 23 24 23
15 17 18 18 18 18 19 18 18 20 15 9 12 7 3 5 3 2 5 9 9 11 14 7 10 16 20 11 10 9 2 10 6
14 15 17 17 16 16 16 16 16 15 18 11 9 12 12 5 4 6 5 6 6 7 11 11 16 9 15 21 18 7 12 14 15
13 13 14 16 14 14 14 15 15 11 14 10 8 9 10 12 6 7 11 12 11 11 9 11 16 15 15 16 18 23 25 22 20
Wind_Direction
289 284 280 276 271 268 262 263 256 249 251 251 248 240 238 235 224 218 220 240 246 242 248 243 237 232 220 212 212 210 204 189 173
282 284 280 273 271 267 264 260 252 251 249 253 246 245 244 243 235 230 223 236 244 251 245 238 229 226 225 224 224 216 207 196 183
282 280 279 282 276 269 265 261 256 255 253 251 247 249 249 247 240 235 235 236 250 253 245 236 227 222 218 215 211 207 202 199 196
286 283 278 274 272 272 268 264 261 256 255 251 250 250 252 250 242 236 230 231 248 250 249 239 231 224 219 215 213 210 207 207 207
283 272 274 275 275 274 271 263 261 259 255 253 254 253 254 251 244 234 227 228 245 255 251 243 235 228 223 220 218 217 215 213 213
269 268 275 277 279 275 273 270 262 258 258 254 252 252 251 251 247 239 227 228 232 248 246 244 238 231 227 225 222 221 220 220 221
275 266 260 265 272 278 272 272 268 262 257 255 252 249 249 248 248 244 235 227 231 242 246 247 242 233 231 231 231 229 228 228 228
278 271 263 258 260 265 268 267 269 270 266 260 255 251 250 251 247 246 239 231 232 240 247 246 245 236 234 234 233 234 234 233 233
296 285 280 273 263 258 260 266 264 272 272 264 259 257 254 253 253 249 244 236 231 238 248 251 246 239 236 237 236 235 234 234 235
320 310 298 284 274 265 258 256 261 265 270 271 264 259 258 255 253 250 245 240 232 239 247 254 254 244 237 238 239 238 237 237 237
327 322 319 309 294 279 269 263 265 265 270 274 271 269 259 259 254 249 248 239 234 236 244 252 257 251 242 237 237 240 241 242 243
330 333 339 337 329 304 285 275 267 268 269 276 279 272 272 261 259 252 248 238 235 236 241 247 253 255 246 242 239 238 240 242 242
336 336 343 338 332 331 314 295 285 274 272 276 282 278 272 270 261 261 249 244 235 236 241 251 251 254 248 243 243 241 239 241 243
340 341 339 334 329 321 318 313 302 302 281 279 291 283 275 271 270 261 257 248 242 236 241 247 254 255 253 243 243 244 245 245 244
340 338 331 329 327 322 316 312 306 302 305 285 292 290 284 279 274 276 255 257 253 250 248 245 246 249 251 247 241 243 241 241 242
336 334 329 331 333 334 325 318 316 308 303 292 283 289 293 276 276 273 258 252 245 248 241 263 233 239 241 235 235 238 239 239 239
334 334 336 341 341 345 336 321 316 305 311 287 290 296 286 306 254 256 278 267 251 256 255 270 271 237 111 195 231 229 242 229 225
329 336 343 348 346 345 341 335 325 310 312 285 271 276 200 158 66 186 231 262 228 244 204 267 270 278 259 262 189 189 241 254 251
322 335 345 351 355 356 353 347 346 321 310 303 268 263 262 241 174 158 154 157 156 214 241 294 272 252 250 231 227 212 237 261 269
321 327 338 347 357 358 354 351 351 351 340 287 277 277 273 239 211 166 180 183 188 217 233 206 205 239 210 206 219 224 227 229 242